[[{"header":{"parameterUnit":"m.s-1","parameterCategory":1,"la1":30.2992,"la2":30.254,"lo1":-89.0895,"lo2":-89.0443,"dy":0.0025,"dx":0.0025,"nx":19,"ny":19,"refTime":"2026-03-16T03:00:00:Z","depth":0,"parameterNumber":2,"parameterNumberName":"U-component_of_WINDS"},"data":[0,0,0,1.0985,1.0986,1.1056,1.1056,1.1143,1.1144,0,0,0,0,0,0,0,0,0,0,0,1.0961,1.0962,1.0985,1.0986,1.1056,1.1056,1.1143,1.1144,0,0,0,0,0,0,0,0,0,0,0,1.0961,1.0962,1.0962,1.0987,1.1056,1.1056,1.1143,1.1091,0,0,0,0,0,0,0,0,0,0,1.1024,1.0999,1.0961,1.0962,1.0987,1.1056,1.1056,1.1089,1.1095,1.111,0,1.1122,0,1.1134,1.1149,1.115,0,0,0,1.0989,1.0994,1.1016,1.0962,1.0988,1.1056,1.1025,1.1092,1.1098,1.1117,1.1123,1.1126,1.1135,1.115,1.115,1.1229,1.1229,0,0,1.0985,1.0972,1.1011,1.102,1.1007,1.1023,1.1027,1.1096,1.1102,1.1123,1.1128,1.1137,1.115,1.1151,1.1228,1.1229,0,0,0,1.0972,1.097,1.0989,1.1016,1.1029,1.1025,1.103,1.1099,1.1106,1.1129,1.1138,1.1151,1.1152,1.1228,1.1229,1.1229,0,0,0,1.097,1.0962,1.0988,1.0981,1.1027,1.1064,1.1031,1.1101,1.1109,1.1137,1.1151,1.1153,1.1228,1.1228,1.1228,1.1231,0,0,0,1.0958,1.0961,1.097,1.098,1.1009,1.1063,1.1075,1.1103,1.1115,1.115,1.1153,1.1228,1.1228,1.1227,1.123,1.1248,0,0,0,1.0941,1.0968,1.0969,1.1004,1.1008,1.1062,1.1075,1.1116,1.1146,1.1151,1.1228,1.1229,1.1227,1.1229,1.1248,1.1262,1.1266,0,0,1.0969,1.0971,1.0993,1.0995,1.1046,1.1053,1.1104,1.1144,1.1159,1.1205,1.1207,1.1228,1.123,1.1248,1.1295,1.1298,0,0,0,1.0997,1.1012,1.1028,1.1056,1.1087,1.1114,1.1147,1.1163,1.1202,1.118,1.124,1.1241,1.1253,1.126,1.1263,1.1274,1.1231,1.1231,1.1231,1.1018,1.1036,1.1073,1.1099,1.1126,1.1161,1.1185,1.1212,1.1222,1.1236,1.125,1.1276,1.1284,1.1286,1.1298,1.1258,1.1258,1.1258,1.1258,1.106,1.1085,1.1099,1.1139,1.1159,1.1194,1.1229,1.1236,1.1272,1.1267,1.1278,1.127,1.1289,1.13,1.1259,1.1259,1.1259,1.1259,1.1259,1.1076,1.1091,1.1109,1.1152,1.1183,1.121,1.1245,1.1262,1.1278,1.1288,1.1306,1.1306,1.1309,1.1295,1.1296,1.1296,1.1296,1.1296,1.1296,1.1086,1.1106,1.1132,1.1168,1.1189,1.1219,1.1255,1.1276,1.1305,1.1315,1.1315,1.1325,1.1287,1.1278,1.1297,1.1297,1.1297,1.1297,1.1297,1.1123,1.1117,1.1158,1.1179,1.1223,1.1255,1.1276,1.1319,1.1339,1.1356,1.1364,1.1333,1.1338,1.1335,1.1328,1.1359,1.1359,1.1359,1.1359,1.1137,1.114,1.1186,1.1219,1.1253,1.1277,1.1324,1.1354,1.1383,1.1398,1.1396,1.1387,1.1384,1.139,1.1387,1.138,1.1424,1.1424,1.1424,1.1161,1.1169,1.1205,1.1233,1.127,1.1302,1.1347,1.1386,1.1418,1.1427,1.141,1.1407,1.1393,1.1387,1.1395,1.1389,1.1377,0,0]},{"header":{"parameterUnit":"m.s-1","parameterCategory":1,"la1":30.2992,"la2":30.254,"lo1":-89.0895,"lo2":-89.0443,"dy":0.0025,"dx":0.0025,"nx":19,"ny":19,"refTime":"2026-03-16T03:00:00:Z","depth":0,"parameterNumber":3,"parameterNumberName":"V-component_of_WINDS"},"data":[0,0,0,-3.6217,-3.6219,-3.6289,-3.6289,-3.6368,-3.6369,0,0,0,0,0,0,0,0,0,0,0,-3.6191,-3.6191,-3.6217,-3.6219,-3.6289,-3.6289,-3.6368,-3.6369,0,0,0,0,0,0,0,0,0,0,0,-3.619,-3.6191,-3.6191,-3.6219,-3.6289,-3.6289,-3.6368,-3.6318,0,0,0,0,0,0,0,0,0,0,-3.6252,-3.6222,-3.6191,-3.6191,-3.6219,-3.6289,-3.629,-3.6316,-3.6321,-3.6332,0,-3.634,0,-3.6356,-3.6373,-3.6373,0,0,0,-3.6223,-3.6217,-3.6242,-3.6191,-3.622,-3.6289,-3.6258,-3.6319,-3.6325,-3.6339,-3.6342,-3.6345,-3.6357,-3.6374,-3.6374,-3.6425,-3.6426,0,0,-3.6219,-3.62,-3.6238,-3.6246,-3.6236,-3.6256,-3.6261,-3.6323,-3.6324,-3.6342,-3.6347,-3.6358,-3.6374,-3.6375,-3.6425,-3.6426,0,0,0,-3.6205,-3.6197,-3.622,-3.6242,-3.6256,-3.6258,-3.6263,-3.6321,-3.6331,-3.6348,-3.6359,-3.6375,-3.6375,-3.6425,-3.6425,-3.6412,0,0,0,-3.6203,-3.6189,-3.6218,-3.6207,-3.6254,-3.629,-3.626,-3.6326,-3.6334,-3.6359,-3.6375,-3.6376,-3.6425,-3.6425,-3.6412,-3.6407,0,0,0,-3.6188,-3.6187,-3.6196,-3.6206,-3.6236,-3.6289,-3.6302,-3.6329,-3.6341,-3.6374,-3.6376,-3.6425,-3.6425,-3.6412,-3.6408,-3.6417,0,0,0,-3.6166,-3.618,-3.6195,-3.6215,-3.6235,-3.6281,-3.6302,-3.6336,-3.6362,-3.6375,-3.6425,-3.6425,-3.6412,-3.6408,-3.6417,-3.642,-3.642,0,0,-3.6173,-3.618,-3.6194,-3.6209,-3.6248,-3.6271,-3.6307,-3.6348,-3.6367,-3.6405,-3.6406,-3.6412,-3.6408,-3.6417,-3.6426,-3.6426,0,0,0,-3.6189,-3.6199,-3.6213,-3.6239,-3.6272,-3.63,-3.6338,-3.6354,-3.6387,-3.6383,-3.6418,-3.6416,-3.6422,-3.6424,-3.6424,-3.6431,-3.6426,-3.6426,-3.6426,-3.617,-3.6197,-3.6222,-3.6258,-3.6282,-3.6323,-3.6345,-3.6373,-3.639,-3.6398,-3.6409,-3.6412,-3.6414,-3.6414,-3.6421,-3.6413,-3.6413,-3.6413,-3.6413,-3.6182,-3.62,-3.6227,-3.6261,-3.6289,-3.6317,-3.6358,-3.637,-3.64,-3.6405,-3.6411,-3.6415,-3.6413,-3.642,-3.6412,-3.6412,-3.6412,-3.6413,-3.6413,-3.6172,-3.6186,-3.6207,-3.6249,-3.6278,-3.6314,-3.6342,-3.6366,-3.6389,-3.6395,-3.641,-3.6411,-3.6414,-3.6401,-3.6401,-3.6401,-3.6401,-3.6401,-3.6401,-3.6153,-3.6178,-3.62,-3.6239,-3.6261,-3.6291,-3.6335,-3.6355,-3.6385,-3.64,-3.64,-3.6417,-3.6408,-3.6406,-3.6401,-3.6401,-3.6401,-3.6401,-3.6401,-3.6155,-3.616,-3.6194,-3.6215,-3.6265,-3.6293,-3.6325,-3.6366,-3.6387,-3.6401,-3.6418,-3.6408,-3.6416,-3.6416,-3.6414,-3.6412,-3.6412,-3.6412,-3.6412,-3.6147,-3.6155,-3.6197,-3.623,-3.6265,-3.6299,-3.6337,-3.6371,-3.6407,-3.6422,-3.6426,-3.6425,-3.6425,-3.6433,-3.6433,-3.6432,-3.6434,-3.6434,-3.6434,-3.615,-3.6163,-3.6191,-3.6229,-3.627,-3.6305,-3.6342,-3.6378,-3.642,-3.6436,-3.6434,-3.6433,-3.6432,-3.6431,-3.6445,-3.6444,-3.6442,0,0]}]]